When you browse on this site, cookies collect data to enhance your experience and personalize the content and advertising you see.
Visit our Privacy Policy to learn more. By continuing to use the site, you agree to this use of cookies and data.

Hourly Weather Wil

Today, 12 July, Sunday

Time Temperature Precipitation Wind Pressure Humidity
00:00 +12°C° 0 mm 1 mps 716 mmHg 94%
01:00 +11°C° 0 mm 1 mps 716 mmHg 95%
02:00 +11°C° 0 mm 1 mps 716 mmHg 95%
03:00 +10°C° 0 mm 1 mps 716 mmHg 95%
04:00 +10°C° 0 mm 1 mps 715 mmHg 95%
05:00 +11°C° 0 mm 1 mps 716 mmHg 94%
06:00 +12°C° 0 mm 1 mps 716 mmHg 93%
07:00 +13°C° 0 mm 1 mps 716 mmHg 92%
08:00 +15°C° 0 mm 2 mps 716 mmHg 83%
09:00 +17°C° 0 mm 2 mps 716 mmHg 73%
10:00 +19°C° 0 mm 3 mps 716 mmHg 64%
11:00 +20°C° 0 mm 3 mps 716 mmHg 60%
12:00 +21°C° 0 mm 3 mps 717 mmHg 56%
13:00 +22°C° 0 mm 4 mps 717 mmHg 53%
14:00 +22°C° 0 mm 4 mps 716 mmHg 54%
15:00 +22°C° 0 mm 4 mps 716 mmHg 56%
16:00 +22°C° 0 mm 4 mps 716 mmHg 57%
17:00 +21°C° 0 mm 4 mps 716 mmHg 63%
18:00 +20°C° 0 mm 3 mps 716 mmHg 68%
19:00 +19°C° 0 mm 3 mps 716 mmHg 74%
20:00 +17°C° 0 mm 2 mps 716 mmHg 79%
21:00 +15°C° 0 mm 2 mps 716 mmHg 84%
22:00 +13°C° 0 mm 1 mps 715 mmHg 89%
23:00 +13°C° 0 mm 1 mps 715 mmHg 90%

Tomorrow, 13 July, Monday

Time Temperature Precipitation Wind Pressure Humidity
00:00 +12°C° 0 mm 1 mps 715 mmHg 91%
01:00 +12°C° 0 mm 1 mps 715 mmHg 92%
02:00 +11°C° 0 mm 1 mps 715 mmHg 93%
03:00 +11°C° 0 mm 1 mps 714 mmHg 94%
04:00 +11°C° 0 mm 1 mps 714 mmHg 95%
05:00 +12°C° 0 mm 1 mps 714 mmHg 91%
06:00 +13°C° 0 mm 1 mps 715 mmHg 88%
07:00 +13°C° 0 mm 0 mps 715 mmHg 85%
08:00 +16°C° 0 mm 1 mps 715 mmHg 79%
09:00 +19°C° 0 mm 1 mps 715 mmHg 73%
10:00 +20°C° 0 mm 1 mps 715 mmHg 67%
11:00 +20°C° 0.1 mm 2 mps 715 mmHg 64%
12:00 +23°C° 0.1 mm 2 mps 714 mmHg 61%
13:00 +24°C° 0.1 mm 2 mps 714 mmHg 58%
14:00 +24°C° 0.1 mm 2 mps 714 mmHg 58%
15:00 +24°C° 0.1 mm 2 mps 714 mmHg 57%
16:00 +24°C° 0.1 mm 2 mps 714 mmHg 57%
17:00 +23°C° 0.1 mm 2 mps 713 mmHg 63%
18:00 +20°C° 0.1 mm 2 mps 713 mmHg 70%
19:00 +19°C° 0.1 mm 2 mps 713 mmHg 77%
20:00 +19°C° 0 mm 1 mps 713 mmHg 82%
21:00 +16°C° 0 mm 1 mps 713 mmHg 87%
22:00 +14°C° 0 mm 1 mps 713 mmHg 92%
23:00 +14°C° 0 mm 1 mps 713 mmHg 92%

Day after tomorrow, 14 July, Tuesday

Time Temperature Precipitation Wind Pressure Humidity
00:00 +13°C° 0 mm 1 mps 712 mmHg 92%
01:00 +13°C° 0 mm 1 mps 712 mmHg 93%
02:00 +11°C° 0 mm 0 mps 712 mmHg 93%
03:00 +11°C° 0 mm 0 mps 712 mmHg 94%
04:00 +10°C° 0 mm 0 mps 711 mmHg 94%
05:00 +12°C° 0 mm 0 mps 711 mmHg 91%
06:00 +13°C° 0 mm 0 mps 712 mmHg 88%
07:00 +14°C° 0 mm 0 mps 712 mmHg 86%
08:00 +16°C° 0 mm 0 mps 712 mmHg 78%
09:00 +18°C° 0 mm 0 mps 712 mmHg 70%
10:00 +22°C° 0 mm 1 mps 712 mmHg 63%
11:00 +23°C° 0 mm 1 mps 712 mmHg 58%
12:00 +23°C° 0 mm 1 mps 712 mmHg 53%
13:00 +24°C° 0 mm 1 mps 712 mmHg 48%
14:00 +24°C° 0 mm 1 mps 712 mmHg 48%
15:00 +24°C° 0 mm 1 mps 711 mmHg 47%
16:00 +24°C° 0 mm 1 mps 711 mmHg 47%
17:00 +23°C° 0 mm 1 mps 711 mmHg 54%
18:00 +22°C° 0 mm 1 mps 711 mmHg 62%
19:00 +21°C° 0 mm 1 mps 711 mmHg 69%
20:00 +19°C° 0 mm 1 mps 711 mmHg 73%
21:00 +18°C° 0 mm 1 mps 711 mmHg 77%
22:00 +15°C° 0 mm 1 mps 711 mmHg 81%
23:00 +14°C° 0 mm 1 mps 711 mmHg 83%

15 July, Wednesday

Time Temperature Precipitation Wind Pressure Humidity
00:00 +14°C° 0 mm 1 mps 711 mmHg 85%
01:00 +13°C° 0 mm 1 mps 711 mmHg 86%
02:00 +13°C° 0 mm 1 mps 711 mmHg 87%
03:00 +13°C° 0 mm 1 mps 710 mmHg 88%
04:00 +13°C° 0 mm 1 mps 710 mmHg 89%
05:00 +14°C° 0.1 mm 1 mps 711 mmHg 87%
06:00 +15°C° 0.1 mm 1 mps 711 mmHg 86%
07:00 +16°C° 0.1 mm 1 mps 711 mmHg 84%
08:00 +18°C° 0.2 mm 1 mps 711 mmHg 79%
09:00 +19°C° 0.2 mm 2 mps 711 mmHg 73%
10:00 +20°C° 0.2 mm 3 mps 711 mmHg 68%
11:00 +21°C° 0.3 mm 3 mps 711 mmHg 67%
12:00 +21°C° 0.3 mm 4 mps 711 mmHg 66%
13:00 +21°C° 0.3 mm 4 mps 711 mmHg 65%
14:00 +21°C° 0.4 mm 4 mps 711 mmHg 70%
15:00 +20°C° 0.4 mm 3 mps 711 mmHg 74%
16:00 +20°C° 0.4 mm 3 mps 711 mmHg 78%
17:00 +19°C° 0.3 mm 3 mps 711 mmHg 81%
18:00 +18°C° 0.3 mm 2 mps 711 mmHg 84%
19:00 +17°C° 0.3 mm 2 mps 712 mmHg 87%
20:00 +18°C° 0.1 mm 1 mps 712 mmHg 88%
21:00 +16°C° 0.1 mm 1 mps 712 mmHg 89%
22:00 +16°C° 0.1 mm 1 mps 712 mmHg 90%
23:00 +15°C° 0 mm 1 mps 712 mmHg 90%

16 July, Thursday

Time Temperature Precipitation Wind Pressure Humidity
00:00 +15°C° 0 mm 1 mps 712 mmHg 91%
01:00 +15°C° 0 mm 1 mps 712 mmHg 92%
02:00 +15°C° 0 mm 1 mps 712 mmHg 92%
03:00 +15°C° 0 mm 1 mps 712 mmHg 92%
04:00 +14°C° 0 mm 1 mps 712 mmHg 92%
05:00 +15°C° 0 mm 1 mps 712 mmHg 92%
06:00 +15°C° 0 mm 1 mps 712 mmHg 92%
07:00 +15°C° 0 mm 1 mps 712 mmHg 91%
08:00 +16°C° 0 mm 1 mps 712 mmHg 89%
09:00 +16°C° 0 mm 2 mps 712 mmHg 87%
10:00 +16°C° 0 mm 2 mps 712 mmHg 85%
11:00 +17°C° 0.1 mm 2 mps 712 mmHg 85%
12:00 +17°C° 0.1 mm 2 mps 712 mmHg 85%
13:00 +17°C° 0.1 mm 2 mps 712 mmHg 84%
14:00 +16°C° 0.1 mm 1 mps 712 mmHg 85%
15:00 +16°C° 0.1 mm 1 mps 712 mmHg 86%
16:00 +15°C° 0.1 mm 0 mps 712 mmHg 87%
17:00 +15°C° 0.1 mm 0 mps 712 mmHg 88%
18:00 +16°C° 0.1 mm 1 mps 712 mmHg 89%
19:00 +15°C° 0.1 mm 1 mps 712 mmHg 90%
20:00 +15°C° 0 mm 1 mps 712 mmHg 91%
21:00 +13°C° 0 mm 0 mps 712 mmHg 91%
22:00 +13°C° 0 mm 0 mps 713 mmHg 91%
23:00 +13°C° 0.1 mm 0 mps 713 mmHg 92%

17 July, Friday

Time Temperature Precipitation Wind Pressure Humidity
00:00 +12°C° 0.1 mm 0 mps 712 mmHg 92%
01:00 +12°C° 0.1 mm 0 mps 712 mmHg 93%
02:00 +12°C° 0 mm 0 mps 712 mmHg 93%
03:00 +12°C° 0 mm 0 mps 712 mmHg 94%
04:00 +11°C° 0 mm 0 mps 712 mmHg 95%
05:00 +12°C° 0 mm 0 mps 712 mmHg 93%
06:00 +13°C° 0 mm 0 mps 712 mmHg 92%
07:00 +14°C° 0 mm 0 mps 713 mmHg 90%
08:00 +15°C° 0.1 mm 0 mps 713 mmHg 86%
09:00 +17°C° 0.1 mm 0 mps 713 mmHg 81%
10:00 +20°C° 0.1 mm 1 mps 713 mmHg 77%
11:00 +21°C° 0.2 mm 1 mps 713 mmHg 73%
12:00 +22°C° 0.2 mm 1 mps 713 mmHg 69%
13:00 +23°C° 0.2 mm 1 mps 713 mmHg 65%
14:00 +23°C° 0.4 mm 1 mps 713 mmHg 67%
15:00 +22°C° 0.4 mm 1 mps 713 mmHg 69%
16:00 +21°C° 0.4 mm 2 mps 713 mmHg 71%
17:00 +20°C° 0.4 mm 2 mps 713 mmHg 77%
18:00 +20°C° 0.4 mm 1 mps 713 mmHg 83%
19:00 +19°C° 0.4 mm 1 mps 713 mmHg 88%
20:00 +18°C° 0 mm 1 mps 713 mmHg 89%
21:00 +16°C° 0 mm 1 mps 714 mmHg 90%
22:00 +14°C° 0 mm 1 mps 714 mmHg 91%
23:00 +14°C° 0 mm 1 mps 714 mmHg 92%
Show more